Volver al catálogo

STARLINK-36296

ActivoComunicacionesSSO
NORAD 68380·PAYLOAD·🇺🇸 United States

Lanzado Mar 26, 2026 desde Vandenberg Space Force Base

Loading…

Próximos Pases (próximas 24 horas)

TLE

ActualizadoSource: CelesTrak SupGP

Época: Sep 15, 2026, 02:54 UTC

1 68380C 26063A   26258.12131944 -.00031812  00000+0 -98767-3 0  2584
2 68380  97.2864  42.0330 0000928  86.6573 110.0386 15.33451442    11

Sigue STARLINK-36296 en tiempo real con AllMySat

Download on the App Store